#timestamp,LO_Frequency,Hit,StdDev 
1602504015.6,286047001.2,N
1602504035.5,286047000.8,N
1602504055.3,286046998.2,N
1602504075.2,286046998.4,N
1602504095.9,286046998.6,N
1602504115.7,286046998.3,N
1602504135.6,286046999.0,N
1602504155.4,286046998.2,N
1602504175.2,286046998.1,N
1602504195.1,286046998.2,N
1602504196.0,286046998.2,N
1602504215.8,286046998.8,N
1602504235.7,286046998.9,N
1602504255.5,286046998.9,N
1602504275.3,286046998.7,N
1602504295.2,286046998.2,N
1602504315.0,286046998.9,N
1602504315.9,286046998.9,N
1602504335.8,286046999.1,N
1602504355.6,286046999.2,N
1602504375.4,286046999.2,N
1602504395.3,286046999.4,N
1602504415.1,286046997.1,N
1602504435.9,286046996.8,N
1602504455.7,286046999.6,N
1602504475.5,286046999.1,N
1602504495.4,286046997.0,N
1602504515.2,286046996.8,N
1602504535.0,286046999.5,N
1602504535.9,286046999.5,N
1602504555.8,286046999.1,N
1602504575.6,286046997.0,Y
1602504595.5,286046998.4,P
1602504615.3,286046998.1,P
1602504635.1,286046998.2,P
1602504655.9,286046998.4,Y
1602504675.7,286047000.3,P
1602504695.6,286047000.3,N
1602504715.4,286046999.9,N
1602504735.2,286047000.0,N
1602504755.1,286046999.7,N
1602504756.0,286046999.7,N
1602504775.8,286047001.5,N
1602504795.6,286047002.4,N
1602504815.5,286047002.7,N
1602504835.3,286046999.8,N
1602504855.2,286046999.9,N
1602504875.0,286047000.0,N
1602504875.9,286047000.0,N
1602504895.7,286046999.8,N
1602504915.6,286047000.6,N
1602504935.4,286047000.2,N
1602504955.3,286046999.9,N
1602504975.1,286047002.7,N
1602504976.0,286047002.7,N
1602504995.8,286047000.2,N
1602505015.7,286046999.9,N
1602505035.5,286047002.4,N
1602505055.3,286046999.9,N
1602505075.2,286047000.4,N
1602505095.0,286047000.6,N
1602505095.9,286047000.6,N
1602505115.8,286047000.2,N
1602505135.6,286046999.8,N
1602505155.4,286047000.4,N
1602505175.3,286046999.9,N
1602505195.1,286047000.4,N
1602505215.9,286047000.3,N
1602505235.7,286047000.1,N
1602505255.5,286047000.1,N
1602505275.4,286047000.1,N
1602505295.2,286047000.5,N
1602505315.0,286047000.3,N
1602505315.9,286047000.3,N
1602505335.8,286047000.8,N
1602505355.6,286047000.5,N
1602505375.5,286047000.3,N
1602505395.3,286047000.2,N
1602505415.1,286047000.3,N
1602505435.9,286047000.9,N
1602505455.7,286047000.5,N
1602505475.6,286047001.0,N
1602505495.4,286047000.4,N
1602505515.2,286046999.9,N
1602505535.1,286046999.9,N
1602505536.0,286046999.9,N
1602505555.8,286047000.8,N
1602505575.6,286047000.7,N
1602505595.5,286047000.6,N
1602505615.3,286047000.2,N
1602505635.2,286046999.9,N
1602505655.9,286047000.5,N
1602505675.7,286047002.8,Y
1602505695.6,286046998.1,P
1602505715.4,286047000.9,N
1602505735.2,286047000.9,N
1602505755.1,286047000.8,N
1602505756.0,286047000.8,N
1602505775.8,286047000.4,N
1602505795.7,286047000.6,N
1602505815.5,286047000.8,N
1602505835.3,286047001.0,N
1602505855.2,286046998.1,N
1602505875.0,286047000.6,N
1602505875.9,286047000.6,N
1602505895.8,286047001.0,N
1602505915.6,286047000.8,N
1602505935.4,286047000.7,N
1602505955.3,286047000.7,N
1602505975.1,286046998.5,N
1602505995.8,286046998.4,N
1602506015.7,286047001.0,N
1602506035.5,286047000.9,N
1602506055.4,286047001.0,N
1602506075.2,286047001.0,N
1602506095.0,286047000.7,N
1602506095.9,286047000.7,N
1602506115.8,286047000.7,N
1602506135.6,286046998.2,N
1602506155.4,286047001.2,N
1602506175.3,286046998.6,N
1602506195.1,286046998.1,N
1602506215.9,286046998.5,N
1602506235.7,286046998.6,N
1602506255.5,286046998.4,N
1602506275.4,286046998.3,N
1602506295.2,286046998.9,N
1602506315.0,286046998.3,N
1602506315.9,286046998.3,N
1602506335.8,286046998.2,N
1602506355.6,286046998.7,N
1602506375.5,286046999.4,N
1602506395.3,286046999.2,N
1602506415.1,286046999.1,N
1602506435.9,286046999.5,N
1602506455.7,286046998.8,N
1602506475.5,286046999.4,N
1602506495.4,286046998.8,N
1602506515.2,286046998.9,N
1602506535.1,286046999.4,N
1602506536.0,286046999.4,N
1602506555.8,286046999.2,N
1602506575.6,286046999.3,N
1602506595.5,286046998.4,N
1602506615.3,286046999.2,N
1602506635.2,286046999.4,N
1602506655.9,286046999.2,N
1602506675.7,286046999.1,N
1602506695.6,286046998.7,N
1602506715.4,286046999.5,N
1602506735.2,286046999.1,N
1602506755.1,286046998.7,Y
1602506756.0,286046998.7,P
1602506775.8,286046998.6,P
1602506795.7,286046998.4,P
1602506815.5,286046998.7,Y
1602506835.3,286047000.3,P
1602506855.2,286047000.1,N
1602506875.0,286047002.8,P
1602506875.9,286047002.8,N
1602506895.8,286047002.4,N
1602506915.6,286047002.7,N
1602506935.4,286047000.1,N
1602506955.3,286047002.8,N
1602506975.1,286047002.7,N
1602506995.8,286046999.7,N
1602507015.7,286046999.8,N
1602507035.5,286047000.2,N
1602507055.4,286047000.3,N
1602507075.2,286047002.4,N
1602507095.0,286047002.7,N
1602507095.9,286047002.7,N
1602507115.8,286046999.8,N
1602507135.6,286047000.1,N
1602507155.4,286047000.3,N
1602507175.3,286047000.3,N
1602507195.1,286047000.9,N
1602507215.9,286047000.5,N
1602507235.7,286047001.1,N
1602507255.5,286047001.1,N
1602507275.4,286047000.9,N
1602507295.2,286047000.8,N
1602507315.0,286047000.9,N
1602507316.0,286047000.9,N
1602507335.8,286047000.7,N
1602507355.6,286047000.6,N
1602507375.5,286047000.6,N
1602507395.3,286047000.5,N
1602507415.1,286047000.7,N
1602507435.9,286046998.3,N
1602507455.7,286046998.6,N
1602507475.6,286047000.7,N
1602507495.4,286047000.7,N
1602507515.2,286047000.9,N
1602507535.1,286047000.8,N
1602507536.0,286047000.8,N
1602507555.8,286047000.6,N
1602507575.6,286046998.6,N
1602507595.5,286046998.1,N
